Regional Weather Roundup
Issued by NWS

Home | Current Version | Previous Version | Text Only | Print | Product List | Glossary On
Versions: 1 2 3 4 5 6 7 8 9 10 11 12 13 14 15 16 17 18 19 20 21 22 23 24 25 26 27 28 29 30 31 32 33 34 35 36 37 38 39 40 41 42 43 44 45 46 47 48 49 50
000
ASUS43 KIND 240709
RWRIN

WEATHER ROUNDUP FOR INDIANA
NATIONAL WEATHER SERVICE INDIANAPOLIS IN
200 AM EST TUE JAN 24 2017

NOTE: "FAIR" INDICATES FEW OR NO CLOUDS BELOW 12,000 FEET WITH NO
SIGNIFICANT WEATHER AND/OR OBSTRUCTIONS TO VISIBILITY.

* - STATION DOES NOT REPORT WEATHER SUCH AS PRECIPITATION OR FOG.

+ - STATION NOT QUALITY CONTROLLED BY THE NATIONAL WEATHER SERVICE.
    USE DATA WITH CAUTION...ESPECIALLY DEWPOINT AND RELATIVE
    HUMIDITY OBSERVATIONS.

INZ001>003-010>013-019-020-240800-
NORTHWEST INDIANA

CITY           SKY/WX    TMP DP  RH WIND       PRES   REMARKS
GARY /AIRPORT/ CLOUDY    39  35  84 NW5       29.81R
KNOX *+        CLOUDY    37  28  70 N6        29.77S
LA PORTE +     CLOUDY    38  36  94 NW9       29.78R
MICHIGAN CITY+ CLOUDY    37  37 100 NW6       29.78S
MONTICELLO +   CLOUDY    38  35  91 NW9       29.77F
RENSSELAER +     N/A     39  37  93 NW5       29.80S
VALPARAISO     CLOUDY    39  37  92 NW6       29.79S

$$

LMZ046-743>745-240800-
SOUTHERN LAKE MICHIGAN

STATION/POSITION TIME  TEMP    WIND        PRES    WAVE
                       AIR SEA DIR/SP/G            HT
                 (UTC) (F)     (DEG/KT/KT) (MB)    (FT)
BURNS HARBOR     0640   35     310/  6/  8 1009.8R
MICHIGAN CITY    0640   37     300/ 11/ 12   N/A

$$

INZ004-005-014>016-021>024-240800-
NORTH CENTRAL INDIANA

CITY           SKY/WX    TMP DP  RH WIND       PRES   REMARKS
GOSHEN         CLOUDY    39  36  89 NW13      29.73S FOG
LOGANSPORT +   CLOUDY    37  36  93 NW6       29.77S
PERU/GRISSOM   CLOUDY    39  39 100 NW10      29.74R
ROCHESTER +    CLOUDY    41  39  93 NW8       29.75S
SOUTH BEND     CLOUDY    37  36  96 NW12      29.76S
WARSAW +       CLOUDY    37  34  87 NW10      29.74R FOG

$$

INZ006>009-017-018-025>027-240800-
NORTHEAST INDIANA

CITY           SKY/WX    TMP DP  RH WIND       PRES   REMARKS
ANGOLA *+      CLOUDY    39  30  70 N3        29.70S
AUBURN +       CLOUDY    41  37  87 N6        29.71F
FORT WAYNE     CLOUDY    41  38  89 NW9       29.72S
HUNTINGTON +   CLOUDY    39  38  96 NW6       29.74R
KENDALLVILLE + CLOUDY    39  39 100 N6        29.71S FOG

$$

INZ028-029-035-036-043>045-051>053-240800-
WEST CENTRAL INDIANA

CITY           SKY/WX    TMP DP  RH WIND       PRES   REMARKS
CRAWFORDSVL +  CLOUDY    37  37 100 NW6       29.79S
GREENCASTLE +  CLOUDY    37  36  93 W3        29.80S
LAFAYETTE      CLOUDY    39  36  89 NW6       29.79S
TERRE HAUTE    CLOUDY    40  35  83 NW7       29.82S

$$

INZ030>032-037>040-046>048-054>057-064-065-240800-
CENTRAL INDIANA

CITY           SKY/WX    TMP DP  RH WIND       PRES   REMARKS
CP ATTERBURY + CLOUDY    39  36  87 NW8       29.77S
FISHERS *+     CLOUDY    37  37 100 NW6       29.76S
FRANKFORT +    CLOUDY    41  38  88 NW8       29.78F
GREENWOOD *+   CLOUDY    40  39  98 NW6       29.77S
INDIANAPOLIS   CLOUDY    39  36  89 NW10      29.77R
-EAGLE CREEK   CLOUDY    40  36  86 NW9       29.76S
KOKOMO +       CLOUDY    39  37  92 NW12      29.75S
MARION +       CLOUDY    37  37 100 NW8G17    29.75R FOG
MT COMFORT *+  CLOUDY    37  37 100 NW9       29.75F
SHELBYVILLE    CLOUDY    40  37  89 NW13      29.75S
ZIONSVILLE +   CLOUDY    37  37  97 NW8       29.76S FOG

$$

INZ033-034-041-042-049-050-058-059-240800-
EAST CENTRAL INDIANA

CITY           SKY/WX    TMP DP  RH WIND       PRES   REMARKS
MUNCIE         CLOUDY    41  39  93 NW13      29.74R

$$

INZ060-061-067>069-081>083-085>088-240800-
SOUTHWEST INDIANA

CITY           SKY/WX    TMP DP  RH WIND       PRES   REMARKS
EVANSVILLE     CLOUDY    42  34  73 N6        29.84F
HUNTINGBURG *+ CLOUDY    39  35  86 N12G17    29.83F
WASHINGTON +   CLOUDY    39  35  83 W6        29.82F

$$

INZ062-063-066-070>080-084-089>092-240800-
SOUTH CENTRAL AND SOUTHEAST INDIANA

CITY           SKY/WX    TMP DP  RH WIND       PRES   REMARKS
BEDFORD +      CLOUDY    39  34  81 W5        29.79S
BLOOMINGTON    CLOUDY    39  34  82 VRB5      29.78F
MADISON *+     CLOUDY    41  37  87 NW6       29.78S
NORTH VERNON + CLOUDY   N/A N/A N/A W7G16     29.77R
SEYMOUR +      CLOUDY    41  37  87 NW8       29.78S

$$




USA.gov is the U.S. government's official web portal to all federal, state and local government web resources and services.